Location: Nairn
(57.5833°N, 3.8667°W)
Time: 02:30:04
(UTC+00:00)

Meteor 2-13 Rocket - Pass Details

Date: 07 August 2020
Orbit: 937 x 957 km, 82.5° (Epoch: 19 September)

Event Time Altitude Azimuth Distance (km) Brightness Sun altitude
Rises 01:20:34 0° 346° (NNW) 3,618 8.6 -15.1°
Reaches altitude 10° 01:23:03 10° 347° (NNW) 2,672 7.8 -15.0°
Maximum altitude 01:29:11 89° 71° (ENE) 954 4.4 -14.8°
Enters shadow 01:34:10 16° 169° (S) 2,247 5.9 -14.6°
